Theta_e
324 325 325 325 326 326 326 325 326 326 327 326 327 328 328 329 329 327 327 328 328 329 329 329 330 329 329 330 330 329 324 306 306 305 305 305 317 328 329 332 334 334 333 310 307 305 302 301 301 302 303 303 302 303 306 307 301 297 292 287 287 290 288 291 290 289 291 291 292 292 293 292 291 293 295 296 293 292 291 291 292 293 293 294 295 295 295 296
323 324 324 325 325 325 325 324 326 326 326 327 327 328 327 328 327 327 327 327 328 328 328 330 329 329 330 328 328 327 315 307 303 305 306 318 329 332 333 334 335 334 324 305 305 302 302 301 299 300 299 299 304 303 305 304 301 294 289 287 290 286 293 293 292 291 291 293 292 292 292 291 292 292 294 292 290 290 289 290 290 290 291 292 293 293 293 293
323 323 324 324 325 325 324 324 325 326 326 326 327 327 327 326 326 326 326 327 327 328 329 329 329 327 327 330 327 325 316 308 303 301 305 329 330 333 335 337 335 332 311 308 308 305 303 302 300 300 298 300 299 301 301 301 302 298 292 288 287 290 294 293 293 294 294 293 292 293 294 292 294 293 293 292 290 290 288 288 288 288 288 290 291 292 292 292
322 323 324 324 324 323 323 323 324 325 325 326 327 327 326 325 325 326 326 327 327 328 328 329 328 329 327 326 328 317 311 308 302 303 308 327 333 333 335 336 334 328 314 310 308 308 304 303 300 301 301 298 298 300 299 301 295 297 290 289 292 292 291 294 293 294 294 292 292 291 291 292 293 293 293 291 290 290 289 290 290 289 289 290 290 291 290 290
322 323 323 323 323 323 323 323 324 324 325 326 327 327 325 324 325 325 325 326 327 328 329 329 328 328 325 326 323 316 307 301 302 307 311 330 332 335 332 332 332 318 314 311 308 306 304 301 300 299 299 296 293 297 296 297 298 293 292 291 293 293 292 294 293 292 292 291 289 288 290 293 294 292 291 293 289 288 290 292 290 291 291 290 290 290 290 289
321 322 323 322 322 323 322 322 323 324 325 326 327 327 325 325 325 325 325 325 326 328 329 329 328 327 324 325 315 314 306 294 306 305 325 328 329 333 330 332 326 316 311 302 303 303 302 301 298 296 294 293 292 294 296 296 298 292 288 292 291 292 293 293 293 293 291 291 290 290 293 291 290 291 291 290 289 290 292 292 292 291 291 291 291 290 289 289
321 321 321 321 321 322 321 322 323 324 325 325 326 326 327 326 325 324 324 325 326 327 328 328 328 328 324 324 313 308 302 303 305 308 323 328 328 325 327 326 319 306 306 304 302 301 300 299 298 296 294 292 294 293 296 297 296 293 290 290 295 293 294 293 293 291 289 289 292 292 291 292 291 291 291 289 291 291 292 292 292 291 291 291 290 289 289 289
320 320 321 320 320 321 321 322 323 323 324 325 325 326 327 327 325 324 324 325 325 327 328 328 326 325 326 317 318 306 304 304 307 309 319 326 314 310 315 309 307 307 306 302 301 300 299 298 298 297 293 294 296 295 295 295 292 294 292 293 293 294 294 291 290 290 290 291 289 288 290 290 291 291 289 288 290 291 291 291 291 290 289 289 289 289 289 289
320 320 321 320 320 320 320 322 322 323 324 323 324 324 326 326 324 324 324 324 326 326 327 327 325 323 323 311 304 300 299 308 308 308 310 309 306 304 307 307 307 306 302 302 301 302 300 298 299 298 294 294 297 295 294 293 288 294 295 293 292 293 292 293 291 291 291 292 291 290 289 290 290 292 288 289 289 290 291 290 289 288 288 287 288 288 288 288
320 321 321 320 320 320 321 321 321 321 322 323 324 325 326 325 324 324 324 325 325 326 326 326 325 321 312 307 300 297 304 311 311 309 308 307 305 305 305 306 305 304 305 304 303 301 300 300 300 302 300 298 296 294 295 292 290 295 293 293 293 292 292 293 294 292 290 291 291 290 289 290 292 292 286 289 290 290 289 288 287 287 287 287 288 288 287 288
320 321 321 320 320 320 321 321 320 320 321 322 323 324 324 324 324 324 324 324 325 325 327 326 323 322 313 304 297 295 310 309 309 307 308 308 307 305 306 306 307 304 305 304 303 303 302 302 303 302 301 296 295 292 292 294 295 293 293 291 291 290 290 292 291 291 291 292 289 291 290 290 291 292 289 290 290 290 288 287 286 286 287 287 287 287 287 288
320 320 321 321 320 320 321 321 320 319 321 321 323 323 324 323 323 323 324 325 325 327 328 327 323 313 305 302 298 302 308 309 306 307 308 308 307 308 306 306 306 305 303 303 305 305 303 302 302 300 293 299 292 294 294 294 295 294 292 290 287 287 290 291 291 291 291 292 290 292 288 288 289 289 290 291 290 289 287 286 286 286 286 286 286 287 286 287
319 320 321 321 320 320 320 320 320 320 320 321 322 323 323 322 323 323 324 324 324 326 327 328 321 315 308 301 302 309 308 306 306 309 308 306 307 308 307 307 307 305 305 303 303 305 303 302 301 297 301 296 292 291 294 295 293 293 291 288 289 285 287 289 291 290 291 292 290 291 284 282 288 290 289 291 289 288 286 286 286 286 286 286 285 286 286 286
319 320 320 320 320 320 320 320 319 319 319 321 322 322 324 322 322 323 324 325 327 327 327 327 313 312 304 299 307 309 309 303 309 309 308 306 309 308 309 308 307 304 306 304 303 302 303 300 300 299 300 296 294 298 295 290 289 289 290 287 284 285 284 289 291 290 291 293 292 291 285 285 284 286 290 290 290 287 286 286 285 285 285 285 285 286 286 286
320 319 320 320 320 320 319 319 319 318 319 320 321 322 322 321 322 323 326 326 326 327 325 321 312 306 299 301 309 310 324 309 308 305 308 304 305 307 305 303 307 305 302 304 304 303 302 302 299 295 295 297 296 293 288 287 287 288 287 282 282 284 282 288 290 289 290 291 289 290 285 287 288 288 289 290 289 288 286 285 285 285 285 285 285 285 286 286
320 320 320 319 320 320 319 318 318 318 318 319 320 320 320 321 321 324 326 327 326 325 318 318 313 300 296 299 305 319 309 306 306 307 307 307 302 302 302 303 305 305 303 302 302 301 300 300 295 295 294 292 286 284 283 283 284 284 286 282 283 283 282 285 290 289 289 290 291 290 286 284 285 287 289 288 288 287 286 285 285 285 285 285 285 285 285 286
319 320 320 319 320 319 319 319 318 318 319 319 319 319 320 320 323 325 325 323 316 317 313 308 305 303 298 304 307 305 304 306 309 309 307 307 305 303 302 301 300 300 302 301 301 302 299 296 296 294 291 288 286 284 285 279 279 279 283 285 282 284 283 282 285 287 289 290 287 288 286 288 286 287 288 288 288 286 285 285 284 285 285 285 285 285 285 285
320 320 319 319 320 319 319 318 318 318 319 318 318 319 318 322 323 320 313 312 312 313 314 310 304 301 293 303 300 299 305 305 308 306 305 306 304 302 301 299 298 298 300 297 299 297 298 294 293 292 287 286 284 282 283 280 283 281 282 282 283 281 282 284 283 285 290 289 287 286 285 287 286 286 288 288 287 286 286 285 285 284 284 284 285 285 284 285
320 319 319 320 320 319 318 319 318 318 318 319 321 321 320 319 307 304 301 302 303 296 298 302 297 290 290 297 302 305 306 308 306 305 306 302 303 302 301 300 300 299 296 295 296 298 294 290 290 285 287 284 285 282 282 285 284 285 284 283 281 281 283 282 285 285 289 286 286 286 286 289 287 286 288 287 286 286 286 284 284 284 284 284 284 284 284 284
319 319 318 319 319 319 318 319 318 318 318 315 309 303 299 299 295 300 299 300 297 295 295 296 298 300 300 301 304 307 309 305 302 303 304 304 303 300 298 299 296 296 294 294 293 295 292 286 286 288 289 285 285 285 285 286 286 285 284 283 283 282 284 285 286 287 287 286 286 287 286 286 287 286 288 288 286 284 284 284 283 283 284 284 284 284 284 284
319 319 319 319 319 318 318 318 318 317 318 310 302 295 293 291 290 289 290 296 296 296 295 298 299 300 299 302 302 301 301 300 300 300 304 305 301 298 297 297 291 295 291 293 294 294 290 288 288 289 290 286 284 284 286 287 285 286 284 282 283 282 282 287 286 287 286 286 282 282 283 286 287 288 287 287 285 285 284 284 283 283 284 284 284 284 284 284
319 319 319 319 318 318 319 318 318 317 318 304 300 293 294 294 296 296 295 292 296 296 299 299 300 301 301 302 303 300 300 298 299 300 303 303 300 296 294 293 292 293 291 290 290 285 286 288 292 290 289 284 287 286 286 286 286 285 283 281 281 283 283 286 286 286 287 286 284 284 283 285 287 288 287 286 285 287 287 286 285 284 283 284 284 284 283 283
318 319 318 318 318 318 318 318 317 317 303 300 299 299 299 304 302 301 299 293 293 297 301 300 302 297 299 301 302 302 297 294 294 298 298 300 298 297 293 291 290 290 292 288 291 284 288 284 288 288 285 288 286 286 286 286 285 283 283 282 282 283 282 280 283 284 286 285 283 283 284 286 288 289 289 288 287 287 287 285 285 285 284 284 284 284 283 282
318 318 318 318 318 318 318 317 316 308 301 301 299 299 303 301 301 304 300 294 292 293 300 301 302 300 298 300 302 298 295 295 294 296 299 297 293 294 292 288 288 290 290 287 288 288 290 292 289 285 286 287 286 286 286 285 284 282 283 282 282 283 283 282 282 283 284 285 284 284 283 282 285 286 287 284 284 285 283 284 283 284 284 285 284 283 282 282
318 318 318 317 317 317 317 316 303 301 302 302 300 302 301 300 300 303 299 290 286 290 301 300 301 302 301 305 303 299 295 295 295 295 296 296 291 293 292 292 290 288 286 286 285 286 286 286 287 287 287 287 286 285 285 285 282 279 282 286 286 284 284 283 281 283 280 279 280 280 278 275 278 282 284 282 282 282 282 283 282 284 283 283 282 282 282 283
317 318 317 317 317 316 316 307 303 302 302 300 303 303 299 298 298 301 291 283 282 286 298 295 306 300 305 298 300 297 297 293 296 296 300 296 298 295 294 291 293 291 287 286 289 286 288 287 287 287 287 286 286 284 283 286 282 281 284 283 285 284 283 282 281 282 276 274 282 281 276 276 279 281 282 280 281 282 281 282 283 283 283 282 282 281 282 282
318 318 317 317 316 315 305 302 305 304 302 303 302 300 299 299 302 302 293 281 281 289 293 300 299 298 304 300 299 297 290 290 296 294 296 297 296 299 293 288 290 289 288 286 285 285 286 287 284 284 286 285 284 282 282 286 283 281 283 281 283 283 283 282 283 282 279 279 282 281 279 275 277 281 284 282 282 281 280 281 282 282 282 281 281 281 281 281
318 318 317 316 315 313 302 300 302 301 299 304 302 297 300 300 300 299 286 275 273 296 296 296 300 306 302 299 298 294 293 296 292 293 293 296 296 293 293 288 291 289 287 289 284 285 286 283 285 285 284 283 283 283 284 286 284 282 284 282 284 282 282 282 282 280 279 278 276 279 281 276 275 278 280 280 279 279 279 280 281 282 282 281 281 281 281 281
318 318 316 314 314 312 303 300 300 299 303 300 299 299 302 300 299 287 281 275 285 293 304 296 305 302 298 297 296 293 294 294 292 294 294 295 296 293 291 288 289 287 287 290 288 285 287 287 285 286 284 284 284 282 284 287 285 284 283 283 282 283 282 282 280 279 276 275 274 279 279 273 278 278 278 278 278 279 280 281 282 282 282 281 280 280 280 280
318 318 315 313 309 303 300 301 302 303 301 299 300 302 302 301 295 287 281 273 294 290 295 297 296 292 294 292 292 293 293 293 291 292 292 290 292 293 291 291 287 288 287 283 286 286 288 290 289 287 286 285 282 284 283 285 285 284 281 283 280 279 279 278 277 276 272 269 277 280 279 279 275 277 279 277 279 282 283 281 282 282 281 280 280 280 280 280
318 317 314 312 306 304 298 294 300 301 300 298 301 300 298 288 283 278 272 280 290 292 294 293 292 295 292 290 289 291 290 290 292 291 290 292 291 289 290 291 287 281 279 278 282 280 285 287 287 284 287 284 284 284 283 282 283 284 281 280 281 280 275 272 268 273 270 271 274 276 278 279 271 276 279 283 281 281 284 282 282 282 281 280 280 280 280 280
317 316 314 309 309 305 298 295 304 300 298 299 301 293 288 285 283 281 277 292 285 286 288 287 290 289 290 291 288 287 289 293 290 290 288 284 285 287 286 286 280 283 278 277 282 280 283 283 282 286 288 287 284 283 283 281 281 281 279 276 275 271 271 270 269 271 269 274 274 274 276 275 276 282 280 282 284 283 283 285 284 283 281 280 280 280 279 280
316 315 313 310 309 304 302 301 302 299 297 299 296 290 287 281 274 280 282 285 283 289 289 290 289 291 289 290 288 288 289 289 290 288 287 286 287 284 281 286 284 287 282 278 280 281 283 281 283 284 286 287 285 283 280 282 280 280 280 275 274 270 266 270 270 267 268 276 275 275 277 274 280 281 285 286 286 285 284 284 284 283 281 280 280 279 279 279
317 313 309 308 308 309 307 303 302 300 299 298 295 291 282 277 275 289 285 284 285 291 292 290 290 288 289 288 285 286 289 287 287 288 288 284 284 284 286 285 285 288 286 280 282 277 276 276 282 284 284 285 287 285 283 279 280 280 279 281 278 273 273 274 272 274 279 278 274 276 271 269 271 277 278 279 278 278 283 281 280 282 281 281 279 278 279 278
315 312 310 308 308 308 307 304 301 300 299 295 289 286 280 280 280 281 281 284 286 290 291 290 290 287 287 287 284 286 289 288 286 286 286 285 283 280 283 284 286 284 282 283 282 276 281 281 281 284 283 286 285 284 281 281 281 280 278 278 275 278 279 277 273 271 275 273 273 270 274 275 279 278 278 277 277 277 278 278 280 279 279 279 278 278 278 278
311 308 309 307 307 304 305 304 301 302 299 290 285 282 283 284 280 281 284 289 290 289 289 287 284 286 283 281 282 287 290 287 287 287 283 284 282 282 282 283 287 289 287 284 280 278 280 277 280 282 282 284 282 281 284 283 279 279 279 276 279 280 281 278 274 274 274 274 275 275 275 279 278 279 276 278 277 277 276 277 278 278 279 277 278 278 278 278
308 309 304 307 304 302 305 305 305 300 295 287 284 284 287 285 283 284 293 291 291 289 287 285 283 287 283 284 285 285 287 288 285 284 283 281 284 284 283 284 286 288 291 290 284 283 280 281 281 281 284 283 280 281 282 280 282 280 274 278 280 281 281 276 273 274 273 271 276 273 276 280 276 279 275 275 275 275 275 276 277 278 277 277 278 278 278 278
307 306 308 308 308 304 306 305 304 298 291 284 283 289 285 288 289 291 290 290 291 289 286 285 283 288 282 283 283 283 285 287 282 284 279 282 283 284 283 287 287 290 291 286 288 284 283 280 280 278 280 281 282 283 283 282 283 280 278 282 280 275 274 275 272 272 270 272 273 278 276 279 280 281 273 274 275 275 275 275 276 276 276 277 277 277 278 277
307 305 300 308 307 306 305 306 302 295 287 282 282 284 286 288 291 290 291 293 291 288 287 285 286 285 284 282 281 283 284 284 282 282 281 281 282 286 288 289 288 283 286 288 286 282 284 281 280 278 279 280 281 281 278 279 282 281 282 279 281 279 278 274 277 277 278 274 275 277 279 279 280 281 280 278 277 277 276 275 276 277 277 277 277 277 277 277
304 300 298 305 307 307 306 305 298 291 286 283 284 284 286 288 292 293 290 294 290 289 286 285 285 285 284 285 284 285 285 284 282 282 283 283 285 286 287 290 288 285 283 286 285 283 283 281 276 278 278 280 277 279 280 280 277 277 277 275 276 276 278 278 277 276 277 274 275 275 274 281 280 282 281 281 279 278 277 276 277 277 277 277 278 278 278 279
306 300 300 305 306 307 306 301 295 289 288 289 286 284 287 288 290 292 294 293 293 294 291 286 286 286 285 284 286 284 285 283 282 282 283 282 285 284 288 290 287 286 284 285 284 282 279 279 280 276 276 277 280 282 284 283 284 279 280 278 280 276 273 274 275 279 277 277 274 274 275 283 282 280 284 282 281 279 279 278 278 277 277 277 277 278 279 278
301 293 298 306 306 306 302 294 294 294 290 289 288 289 287 296 291 289 291 293 293 292 293 290 286 288 286 288 287 285 285 281 283 283 283 286 287 288 287 291 289 287 288 282 284 283 283 278 278 278 279 281 281 281 280 282 282 281 282 281 281 281 279 278 274 277 274 277 279 277 275 279 280 282 281 282 281 280 279 279 278 277 277 277 277 278 278 278
299 296 303 305 307 305 301 293 295 293 292 294 294 293 292 289 288 290 292 290 291 292 290 290 290 288 287 289 288 286 287 285 284 284 284 285 287 289 287 289 287 287 287 281 283 282 290 279 274 281 281 279 277 278 278 278 281 280 280 279 280 279 281 281 282 281 276 277 274 274 272 278 280 281 281 280 279 280 280 279 278 277 277 277 277 277 277 276
301 299 299 306 308 304 297 286 287 290 292 294 294 293 293 292 290 288 290 292 293 289 291 290 288 293 291 290 288 288 288 285 287 287 287 286 286 284 283 287 288 287 289 285 287 286 279 280 279 274 273 279 277 276 278 277 277 275 276 280 281 283 282 280 279 279 275 280 277 275 272 279 282 279 278 278 277 278 278 277 278 277 277 277 277 277 276 277
301 302 300 301 305 302 292 293 288 287 290 290 290 290 291 291 294 294 292 291 294 289 289 289 293 289 290 287 289 289 289 290 287 288 289 285 287 283 281 284 288 288 287 285 293 290 284 279 280 273 274 272 273 270 270 271 276 276 275 277 280 280 280 277 276 277 274 278 278 276 276 283 279 277 277 277 277 277 277 278 277 278 277 277 277 276 276 277
297 290 297 296 299 298 297 298 293 289 286 287 287 289 291 289 291 293 294 292 294 289 292 289 288 290 288 286 286 287 287 289 289 284 284 284 284 282 279 279 283 284 287 290 289 289 277 279 282 284 281 279 282 283 280 278 275 274 275 277 278 279 281 282 280 278 276 279 277 279 280 281 282 279 276 276 276 277 277 276 276 276 276 277 277 277 277 277
299 292 293 286 297 294 294 297 293 293 287 290 285 288 287 289 290 290 294 289 293 293 290 292 288 287 286 288 288 288 289 289 288 288 284 282 283 279 280 280 281 283 290 288 287 280 274 278 281 282 284 285 287 286 284 283 282 282 280 278 278 278 279 279 278 276 282 276 274 281 282 280 281 284 282 277 278 278 278 277 276 276 277 277 276 277 279 276
293 296 298 298 293 287 289 290 295 292 293 292 289 290 286 287 288 287 290 294 291 294 291 288 290 292 290 290 290 287 288 287 287 284 285 286 284 281 281 281 281 285 285 282 284 284 280 281 285 282 281 285 286 286 287 283 283 284 285 284 281 277 278 277 278 281 281 277 276 282 284 281 283 285 285 282 280 279 278 277 277 277 277 276 276 276 276 275
301 295 297 300 292 292 293 293 295 293 292 292 289 289 287 287 286 290 288 287 291 289 293 287 289 291 292 291 290 288 289 284 283 287 287 288 288 284 278 280 282 279 281 279 281 278 279 281 284 282 282 283 284 284 284 283 284 284 283 284 284 280 278 279 280 281 281 280 282 282 282 282 285 286 285 284 283 281 280 278 277 276 276 276 276 276 275 275
296 295 290 297 296 292 292 294 293 293 290 292 287 288 289 287 286 289 288 291 287 290 294 290 290 291 292 292 291 289 290 290 289 286 289 289 287 287 284 286 279 277 278 278 279 278 283 281 285 282 281 282 284 284 283 282 282 281 283 284 283 283 282 281 280 281 281 281 281 281 281 280 285 288 286 285 281 279 277 276 276 276 276 276 276 275 275 275
305 304 300 294 290 292 291 291 291 291 289 290 288 289 289 288 288 290 290 295 292 290 291 290 293 292 292 292 292 291 294 292 292 292 291 290 287 290 287 284 284 278 277 276 277 276 282 279 277 278 279 280 283 281 281 280 280 280 280 281 282 282 280 282 280 282 280 278 280 279 277 278 284 286 283 282 279 277 277 276 275 276 276 276 276 275 275 274
306 303 304 298 290 294 291 291 291 291 286 291 291 290 290 288 291 291 287 293 295 295 294 294 294 293 290 290 290 292 295 295 295 294 291 293 292 288 293 288 287 284 278 279 279 278 281 278 279 277 277 278 280 277 277 277 277 276 278 281 282 282 283 284 284 284 283 283 279 277 278 283 285 280 277 277 279 278 277 276 276 276 276 276 276 275 275 274
Wind_Speed
16 16 17 18 18 18 17 17 16 15 14 14 14 15 15 14 11 12 11 9 8 8 7 7 6 6 6 5 6 8 7 6 6 5 9 4 5 8 12 12 11 10 10 4 7 10 6 5 6 9 6 2 1 0 2 2 1 2 2 3 2 1 3 1 2 5 1 2 1 2 0 5 5 2 4 5 14 12 8 12 5 10 7 5 4 4 3 2
17 17 17 17 18 18 18 17 16 15 14 13 13 14 15 15 13 12 11 10 8 7 7 6 6 6 4 4 4 6 5 3 5 7 3 2 6 9 11 10 9 6 6 3 5 3 4 7 4 5 4 1 1 0 1 0 2 3 1 3 0 2 0 1 2 3 3 1 2 2 1 2 2 8 3 8 1 7 11 6 4 9 6 5 5 4 4 4
17 17 18 17 18 18 19 18 17 15 14 13 12 13 14 15 15 14 11 10 8 6 6 6 5 4 4 2 2 3 1 2 2 6 3 4 9 10 9 8 6 1 1 1 1 1 1 3 2 3 3 1 4 1 2 2 1 1 1 1 1 4 0 1 2 2 2 6 2 1 0 1 0 3 2 6 7 2 12 9 2 4 6 4 3 4 4 7
18 18 18 18 18 18 18 18 18 17 16 14 12 12 13 15 14 14 12 10 8 6 6 5 4 3 3 2 1 0 3 2 2 3 2 7 9 9 9 8 6 2 2 2 2 0 0 1 0 1 1 3 3 1 1 1 2 1 2 1 1 5 3 1 2 3 2 4 3 1 0 1 3 1 4 12 9 1 3 7 11 13 10 7 5 5 5 6
18 19 19 18 19 19 19 18 18 18 17 15 13 10 13 15 13 13 13 10 8 6 5 5 4 4 2 1 1 1 4 2 1 1 4 9 9 9 10 9 7 1 4 2 3 1 1 3 1 3 3 1 3 1 0 1 1 1 1 2 2 0 2 3 3 4 3 2 6 1 3 1 1 4 7 13 9 8 10 9 4 12 11 10 8 5 4 6
18 19 19 19 19 19 19 18 18 18 18 17 14 10 12 15 13 13 12 10 8 6 5 4 4 3 1 1 0 2 2 1 0 2 5 9 10 10 10 8 10 2 4 3 4 1 8 7 5 3 3 2 2 1 1 0 1 1 3 2 2 1 3 3 2 3 4 1 3 0 1 1 2 3 1 1 4 5 4 7 10 9 9 8 6 6 7 6
18 19 19 18 19 20 20 19 18 18 18 17 15 12 9 12 14 13 12 9 8 5 4 5 3 3 1 2 2 5 2 1 0 4 5 8 10 9 10 6 5 5 6 8 8 5 3 5 5 1 1 2 0 0 2 2 3 2 3 1 1 3 2 5 3 5 4 8 1 1 1 3 4 2 0 4 0 7 8 10 10 9 8 6 8 5 8 7
17 18 17 17 18 19 20 19 19 19 18 17 18 15 12 13 14 14 13 10 7 5 4 4 3 2 1 1 1 2 1 2 3 3 6 7 8 10 7 2 7 5 11 4 3 3 2 5 3 0 3 1 0 0 1 1 1 1 1 1 3 0 1 3 5 4 5 3 1 5 3 2 5 4 4 4 6 7 9 9 9 9 7 6 8 7 6 7
17 17 17 17 18 17 18 19 20 20 19 19 17 16 14 14 14 14 14 11 6 5 3 4 3 1 2 2 2 1 2 1 5 3 3 7 7 8 8 1 7 8 3 2 3 2 3 1 0 0 1 0 0 2 1 1 4 2 1 0 2 2 4 0 3 2 4 2 1 3 3 2 3 7 3 6 6 7 9 9 9 8 9 8 8 7 7 7
17 19 17 17 17 17 18 19 19 20 20 20 18 17 15 13 15 14 15 12 7 2 4 4 2 2 2 3 2 0 1 1 2 2 2 4 6 7 8 2 3 4 2 3 3 5 3 1 1 1 2 0 1 1 0 2 2 1 1 0 1 3 3 2 2 2 3 1 1 2 1 1 4 2 2 4 6 8 9 9 6 9 9 8 7 6 6 7
18 18 19 18 17 17 18 19 18 19 20 20 20 18 16 14 15 14 15 11 7 3 3 4 1 1 1 2 4 3 1 3 1 0 3 4 7 6 3 7 1 3 7 3 4 1 3 4 2 1 1 0 1 4 1 1 0 1 1 5 4 6 2 2 1 2 1 1 2 3 0 4 4 1 7 13 10 10 13 9 8 7 8 8 8 7 5 5
18 19 20 20 19 18 18 18 19 19 18 20 20 19 17 18 16 16 15 10 5 2 3 4 2 2 3 4 4 1 3 4 1 0 2 2 1 2 4 2 1 2 1 1 0 1 3 4 4 0 1 0 2 0 0 0 0 1 1 4 5 6 3 1 4 2 2 1 3 1 2 3 3 8 3 14 12 10 11 10 8 8 7 7 6 5 5 5
17 19 20 21 20 18 20 19 19 20 19 19 19 17 20 19 16 16 14 8 1 2 3 4 2 0 1 0 2 4 2 1 1 4 3 2 0 0 1 1 0 1 2 3 2 2 3 4 2 3 1 1 1 1 1 1 2 1 2 1 4 5 5 4 1 1 3 2 2 3 7 6 11 7 5 13 14 9 9 10 8 7 7 6 6 6 5 3
16 18 18 20 19 18 18 19 20 20 20 19 18 20 18 19 15 15 12 6 5 2 3 4 2 1 1 1 2 4 2 1 2 2 2 1 3 1 2 3 1 1 1 4 1 3 3 1 4 3 1 1 1 1 1 3 3 1 1 3 0 2 2 2 0 2 3 1 2 4 7 9 6 4 7 12 14 17 13 10 9 8 7 6 6 5 5 6
15 16 17 20 19 19 19 18 20 21 21 20 21 19 21 19 16 14 10 4 3 4 6 5 1 1 1 0 2 4 3 1 1 2 1 2 1 0 1 3 1 3 1 4 2 0 3 3 3 2 0 1 1 2 3 2 3 1 2 3 3 2 6 8 0 4 5 1 1 4 6 11 9 5 11 11 10 11 12 10 9 9 8 7 5 6 5 6
15 15 17 18 18 20 20 19 19 21 21 22 20 23 23 16 14 11 7 4 2 4 4 1 0 3 3 0 1 2 1 1 2 2 1 1 1 0 0 1 1 3 2 2 1 1 3 2 5 1 1 2 5 3 4 5 1 4 1 3 2 1 5 8 0 2 5 1 1 6 9 4 5 4 8 7 10 9 10 9 9 9 9 8 6 6 5 4
14 15 16 17 18 22 20 18 17 18 20 20 23 24 20 15 10 9 4 5 2 1 2 1 1 1 2 0 1 1 2 3 2 0 2 0 1 1 1 1 1 1 4 2 2 2 3 2 1 1 4 4 2 4 3 4 5 3 2 3 3 3 2 3 7 2 1 3 4 2 5 10 2 3 9 7 10 9 10 11 10 10 8 8 7 6 6 6
13 14 15 16 18 21 19 17 17 19 18 24 23 19 18 18 11 1 3 5 1 3 2 1 3 1 2 1 1 3 0 1 1 2 1 1 2 1 1 1 0 3 2 1 2 2 3 0 3 1 2 4 4 3 3 5 2 4 5 5 7 2 4 7 4 2 1 1 5 2 6 13 6 4 8 12 9 11 12 13 12 10 8 8 8 7 7 6
11 13 15 16 17 19 19 17 20 19 19 23 20 15 7 2 2 4 6 4 1 2 1 1 1 1 3 2 2 3 1 3 1 1 1 1 1 2 2 2 3 1 1 2 1 1 2 1 3 4 2 2 0 2 3 4 2 6 5 6 3 5 8 4 5 3 3 5 7 8 11 13 7 6 9 7 9 13 10 6 7 8 8 8 8 8 7 6
10 13 16 16 17 18 19 19 20 20 18 13 10 9 6 8 8 1 7 5 0 2 2 3 1 2 2 1 0 1 0 2 1 2 1 1 0 1 2 1 2 4 3 0 5 1 1 3 2 5 7 7 3 4 4 3 4 3 1 2 7 5 10 4 4 7 1 2 10 11 9 10 12 8 11 13 8 7 6 10 10 9 9 9 8 8 8 7
10 12 14 16 16 17 19 20 20 20 16 4 4 4 2 1 2 3 4 11 5 1 2 3 4 3 4 1 1 1 1 1 0 1 1 1 1 2 1 1 2 1 0 0 2 2 3 4 6 6 7 8 5 4 2 1 2 3 3 3 8 3 9 8 4 1 1 3 5 1 4 11 14 10 8 6 9 14 14 13 12 12 11 10 10 9 9 7
10 11 13 14 16 17 19 19 20 19 12 1 5 4 1 2 0 1 1 6 4 0 2 2 1 1 3 3 2 3 3 0 1 3 1 1 0 3 1 2 1 2 1 1 2 4 2 5 8 5 3 3 0 0 1 3 3 0 3 2 4 9 5 11 4 2 0 1 10 7 7 11 12 10 7 10 15 15 17 18 19 18 15 12 10 10 9 5
10 11 12 14 15 18 19 20 17 15 4 4 3 3 1 0 2 1 1 0 6 3 1 0 1 2 2 2 1 2 1 4 3 1 1 2 1 1 2 3 2 1 0 1 1 2 7 3 7 1 5 2 0 1 1 0 0 3 1 1 9 4 3 8 3 3 1 1 6 5 10 10 12 13 16 12 15 12 11 10 9 13 17 16 14 11 10 8
9 9 11 13 16 18 18 19 17 4 4 3 4 1 0 0 1 0 1 2 5 5 1 1 1 1 3 1 1 3 2 2 1 2 2 1 3 2 3 3 3 1 5 2 4 4 8 4 1 5 2 4 2 0 2 1 7 3 4 5 7 7 6 6 5 4 4 6 2 9 11 7 11 16 13 2 3 5 4 5 6 8 6 8 6 6 8 10
8 9 10 12 14 16 20 17 4 2 1 2 1 1 0 0 2 1 0 4 2 4 2 2 3 2 2 1 1 1 1 0 2 0 2 2 4 2 1 1 2 2 3 3 3 1 9 4 2 4 1 1 2 1 4 5 4 5 6 11 10 7 7 5 3 5 5 5 4 4 11 2 4 7 11 3 0 5 4 10 12 12 8 8 9 9 7 7
7 8 9 10 13 16 18 3 1 2 1 0 0 1 1 1 2 2 2 3 3 3 1 3 1 0 1 0 1 2 1 2 0 1 1 1 1 1 1 0 1 2 3 2 3 3 3 1 1 4 4 2 1 3 3 5 6 1 7 3 6 6 4 3 4 4 4 2 2 3 3 13 2 3 6 4 5 9 2 9 11 10 10 9 9 9 8 8
7 7 7 8 10 14 5 1 1 1 1 1 1 2 2 1 0 0 1 3 2 4 4 0 1 1 2 1 1 1 0 2 1 1 1 3 0 1 2 4 2 2 2 1 4 4 2 0 4 2 3 3 2 4 4 8 5 5 1 3 4 1 3 3 0 2 6 0 7 3 4 10 13 9 9 9 10 10 7 9 10 11 10 10 9 8 8 8
6 7 6 6 8 6 3 1 5 1 0 1 2 2 1 0 1 1 3 2 2 1 1 2 1 1 0 0 3 2 1 0 1 1 0 2 0 2 1 4 6 6 2 2 6 5 4 3 3 3 1 3 6 5 3 7 6 4 2 2 1 2 3 1 2 5 1 3 10 3 4 4 8 6 2 2 7 8 13 13 13 13 12 11 10 9 9 8
6 6 4 5 8 4 2 2 1 1 1 2 1 1 1 0 1 3 2 1 2 2 3 2 2 1 1 1 0 0 0 0 1 0 2 0 3 1 1 3 3 3 0 5 9 2 2 2 7 7 6 6 5 3 5 10 4 2 2 1 1 0 0 1 3 2 3 2 11 10 7 5 15 6 1 1 3 11 13 17 16 15 14 11 10 9 9 7
6 6 1 4 4 2 2 1 1 0 1 1 1 0 1 0 2 1 1 5 1 1 1 1 2 3 2 3 2 1 3 1 2 1 3 1 2 2 1 1 3 1 4 3 2 6 2 3 5 4 6 4 4 1 2 0 1 2 4 1 3 3 3 2 3 2 2 3 15 11 10 9 11 5 9 8 11 12 12 6 7 9 9 8 10 11 9 8
7 4 3 2 1 0 1 2 1 2 1 1 1 2 1 4 3 4 4 6 1 2 2 0 3 3 4 4 3 0 0 1 0 1 0 1 1 3 0 1 5 3 2 2 3 5 2 1 1 2 3 3 4 3 3 1 1 1 1 1 6 5 5 2 3 3 1 9 6 5 11 10 8 7 6 10 4 4 11 14 18 18 16 13 12 10 9 8
8 6 6 2 1 1 1 1 1 2 1 1 1 3 3 4 3 6 6 3 1 2 4 2 0 2 4 1 2 2 4 0 1 3 5 3 3 3 4 6 1 4 6 1 3 3 3 6 2 3 3 8 3 3 1 4 3 3 2 3 2 6 6 4 2 3 6 9 2 2 5 4 14 18 4 10 15 9 7 13 17 19 16 14 12 11 8 8
7 7 5 3 3 0 2 1 2 2 2 1 1 2 2 3 6 4 4 0 3 3 3 4 2 2 3 2 3 1 1 3 1 1 4 0 1 4 3 2 5 5 7 1 2 3 8 1 1 3 3 4 7 6 1 0 1 5 3 3 1 3 1 6 5 3 6 6 2 4 2 9 9 10 13 20 17 9 10 11 10 14 18 18 15 10 8 7
9 8 4 4 5 4 2 3 3 3 2 1 2 3 3 3 7 6 6 5 3 1 2 1 1 3 3 7 3 5 1 3 4 3 2 1 2 2 2 2 4 2 1 1 2 3 2 6 5 6 3 3 7 6 8 4 7 8 2 6 6 5 2 6 2 7 11 11 1 3 2 8 1 6 1 7 7 6 7 5 5 11 15 14 9 7 8 7
9 5 3 1 2 4 5 4 4 4 2 1 2 5 8 11 1 6 5 4 3 0 1 1 3 3 3 1 2 3 4 1 1 3 2 4 5 4 6 5 4 5 2 1 4 3 8 7 4 1 1 3 8 1 5 6 3 2 2 4 4 8 5 8 5 4 7 8 9 3 8 5 8 1 2 1 1 1 2 6 10 10 10 10 9 10 9 8
5 3 3 2 3 2 7 5 4 4 4 3 5 7 15 9 5 3 4 5 2 3 2 3 3 3 4 2 3 3 3 2 1 2 2 4 2 3 3 4 8 13 9 7 5 3 1 5 1 3 2 1 2 2 2 3 3 2 4 5 7 1 4 5 3 0 1 1 17 3 10 7 6 5 3 0 2 1 3 6 10 12 12 8 10 9 9 9
3 4 3 4 3 3 7 7 6 5 3 4 5 14 8 4 6 4 3 4 4 8 4 5 4 7 4 6 5 3 4 2 3 3 5 1 5 8 3 6 5 7 11 9 4 4 4 7 1 4 5 0 1 1 1 2 3 7 2 8 1 2 2 3 5 3 1 5 11 3 10 16 5 13 4 2 4 4 4 6 9 10 8 10 10 10 9 9
3 1 3 5 5 7 8 8 8 3 3 5 15 10 2 8 3 6 1 3 2 1 4 5 5 8 5 4 3 5 1 6 3 4 4 5 4 4 4 2 6 10 11 1 5 3 5 8 3 2 1 2 1 1 2 0 1 3 3 2 2 4 2 0 3 6 2 7 8 6 3 18 12 12 2 5 9 10 8 6 8 10 10 11 9 9 8 7
3 2 6 10 8 11 8 9 5 6 3 6 12 7 4 5 1 7 7 6 1 4 5 5 6 4 7 5 3 0 6 7 4 7 2 3 3 6 8 6 3 1 1 8 2 1 1 3 5 1 2 1 1 4 7 4 1 1 0 2 0 1 5 3 6 3 2 10 6 13 5 21 4 7 11 12 16 13 11 9 13 17 14 12 10 9 9 9
4 3 6 1 10 12 10 9 5 4 5 15 11 10 2 6 7 6 5 7 5 4 5 3 5 5 4 7 7 7 6 5 7 6 4 3 7 2 6 2 5 1 3 1 2 1 3 3 7 0 4 2 3 5 9 11 8 2 1 3 1 2 2 1 1 5 6 4 8 11 12 18 4 6 10 12 14 15 17 17 16 13 12 10 10 10 10 9
2 4 2 1 7 10 11 6 5 11 12 6 4 4 3 4 2 6 9 9 5 3 6 4 6 8 5 2 7 3 3 6 6 7 6 4 8 5 7 8 6 5 2 3 1 2 2 2 9 3 2 7 7 3 8 11 13 10 12 11 13 6 4 2 12 4 4 6 8 8 14 23 3 1 9 8 9 13 15 18 17 12 11 12 10 10 10 9
6 8 3 8 9 13 12 9 8 4 4 11 12 6 5 6 3 2 5 8 9 6 1 3 5 7 6 9 5 6 5 4 7 5 6 11 7 9 3 11 9 13 11 8 9 5 5 3 1 8 10 11 6 2 1 2 0 4 9 9 10 8 4 6 12 6 1 10 5 3 7 24 9 3 4 6 6 12 15 15 12 10 11 11 10 10 8 8
9 7 4 8 12 12 9 9 3 6 9 8 1 7 3 3 4 4 6 2 5 7 3 6 9 7 6 5 6 5 8 6 9 9 4 8 8 11 6 15 11 8 6 1 3 1 4 2 1 9 5 2 3 2 4 3 1 1 6 3 6 12 16 15 13 1 5 2 5 6 11 21 2 0 1 3 4 10 13 15 13 10 9 10 11 9 9 6
6 4 2 2 10 7 9 13 12 14 12 3 7 11 6 5 4 3 8 10 7 4 10 6 2 12 8 6 4 7 7 5 8 10 9 5 4 3 4 11 15 9 10 9 8 7 3 5 6 5 6 7 2 3 2 2 2 5 5 9 14 12 8 4 4 2 2 18 7 6 20 20 1 2 2 3 4 7 8 6 10 11 9 10 10 9 7 7
3 2 5 7 9 8 16 8 7 7 13 13 10 13 8 6 11 16 8 8 8 4 2 6 10 4 6 4 6 5 7 17 6 8 11 5 6 0 5 9 13 10 4 1 3 9 5 5 8 6 10 10 12 5 5 6 11 5 3 5 10 14 16 4 8 5 14 6 10 13 20 21 4 2 1 2 4 6 6 8 6 10 12 11 9 8 8 7
8 7 4 6 9 9 9 3 1 6 8 9 8 12 11 15 7 9 15 12 7 3 8 2 0 6 6 4 6 8 10 10 14 2 4 3 3 1 1 3 8 5 2 3 4 10 3 2 8 13 12 16 17 12 1 7 5 6 8 13 15 14 16 13 6 10 18 11 12 25 22 22 22 7 6 6 7 10 9 7 10 8 9 10 9 9 9 8
2 9 8 8 4 11 16 13 7 5 6 8 8 6 20 21 12 3 13 7 12 11 5 9 3 5 6 8 11 11 14 14 10 9 6 3 3 2 3 2 2 3 3 2 4 4 2 4 13 13 17 20 19 19 6 5 10 11 9 13 13 15 14 16 16 23 12 2 19 27 16 18 28 18 14 10 11 10 9 11 10 8 10 12 10 9 8 7
9 7 10 9 9 11 14 14 18 14 11 11 13 4 4 12 14 14 4 11 4 12 10 3 11 18 12 15 10 10 13 15 10 9 5 6 2 2 0 1 3 1 3 1 1 5 6 11 14 7 17 20 21 19 11 6 8 12 17 19 13 14 14 21 28 25 13 15 25 30 20 19 24 20 11 14 16 15 15 14 15 14 10 7 9 10 10 8
9 2 5 13 13 6 18 14 19 20 24 18 8 12 17 14 16 16 7 5 8 7 20 14 18 21 16 12 13 15 16 8 9 12 10 12 16 6 2 1 4 1 3 1 2 1 2 10 11 7 15 16 19 17 11 14 13 14 22 27 19 13 21 26 24 22 22 24 28 27 27 31 26 25 8 11 10 12 12 8 6 8 12 13 12 11 10 9
13 12 4 9 11 9 8 9 10 17 21 19 14 20 20 19 18 7 5 11 9 15 13 20 21 15 18 17 18 19 23 22 18 14 13 15 7 6 6 9 3 2 1 5 3 3 6 9 5 4 10 16 19 10 7 10 11 17 27 32 17 17 20 21 20 23 24 24 28 28 29 29 28 22 9 7 7 5 5 9 14 14 13 14 14 12 10 10
7 8 7 6 10 12 5 8 11 15 13 16 18 26 15 14 22 17 13 10 19 12 14 27 28 15 12 20 24 30 30 19 15 22 14 15 16 12 10 6 12 7 5 3 2 2 6 6 4 2 8 14 12 6 4 2 4 16 29 32 16 19 21 20 19 25 20 25 26 21 18 23 28 18 4 7 8 10 12 12 11 11 14 14 14 12 10 10
6 1 8 7 11 11 14 9 12 10 19 22 22 22 14 20 25 11 11 14 19 15 11 20 20 15 14 23 29 32 27 20 18 13 4 11 7 1 11 4 15 13 10 13 4 6 8 4 5 4 8 16 4 8 5 3 4 14 31 26 23 25 25 21 21 22 22 23 16 17 23 26 23 2 3 5 10 12 11 12 11 10 13 15 14 13 11 9
Wind_Direction
355 353 350 348 347 345 344 345 341 343 345 349 348 347 347 347 352 1 3 4 358 352 1 1 8 12 14 8 350 358 9 82 34 34 57 222 225 263 290 293 295 303 320 359 8 34 346 355 7 344 8 39 279 53 278 44 43 60 58 114 28 209 79 196 156 189 172 113 273 326 173 115 119 103 159 62 40 86 70 72 62 55 56 93 127 129 137 146
354 350 349 348 346 345 344 342 340 341 342 343 347 350 349 349 352 1 4 1 6 348 355 1 3 12 9 353 0 23 60 64 79 69 96 249 237 275 286 286 290 314 331 37 35 47 28 334 332 12 30 28 300 68 28 303 80 85 117 76 245 199 300 162 159 170 105 195 192 260 284 129 155 135 193 85 93 100 76 62 66 88 75 75 74 83 81 77
354 350 348 347 347 345 344 341 338 338 340 340 343 350 350 351 350 358 3 2 2 357 343 353 5 358 355 332 351 38 40 359 35 15 297 265 277 290 287 277 291 283 63 311 255 155 201 260 295 18 358 14 358 267 39 278 66 212 100 357 249 212 117 286 175 157 198 157 145 152 291 77 190 123 134 122 155 105 127 138 56 118 136 122 102 77 73 69
355 351 349 348 347 345 343 341 337 336 339 339 340 344 350 351 349 352 359 1 356 357 344 342 349 348 331 300 45 132 69 55 37 267 274 303 311 309 306 297 305 171 115 189 180 190 226 299 78 136 23 60 307 33 34 305 61 271 67 175 223 199 124 248 170 167 150 135 152 133 308 60 348 118 118 146 103 221 203 187 161 173 161 147 131 107 80 77
355 352 349 347 347 343 342 340 337 337 335 336 338 339 345 348 347 348 353 356 355 347 344 329 344 344 336 205 162 75 58 60 256 253 267 323 326 311 312 315 325 169 194 197 109 12 94 56 79 39 68 307 346 10 11 336 140 94 222 198 194 223 82 215 208 187 132 112 104 110 74 235 265 45 127 151 145 199 190 197 187 148 149 141 135 132 117 93
355 351 350 348 345 344 342 339 337 336 333 336 336 329 339 346 345 344 348 352 348 346 330 329 328 338 342 62 67 73 79 149 251 299 307 322 332 316 319 330 337 109 134 68 59 352 42 356 56 21 1 63 339 86 294 185 24 323 314 276 199 214 123 207 198 233 161 97 89 78 179 50 73 109 149 108 175 202 163 140 140 134 137 138 126 129 101 94
355 351 349 347 345 343 341 338 336 335 335 332 328 328 326 338 341 343 340 352 344 336 330 317 315 307 348 352 61 84 114 250 11 260 337 331 330 327 317 336 11 68 60 36 13 46 18 38 67 349 56 53 331 130 296 329 15 126 239 343 326 141 138 190 172 172 143 109 119 187 87 139 154 149 87 89 357 119 116 124 126 128 124 129 120 122 125 126
354 350 348 347 344 341 338 337 335 333 331 330 331 329 328 336 337 338 333 345 340 328 320 303 317 342 137 63 88 6 35 254 245 280 295 343 341 328 319 313 24 54 57 70 20 30 66 40 38 37 65 135 205 53 313 353 6 151 278 280 281 8 136 172 152 124 99 88 112 58 72 248 200 170 97 129 134 123 121 120 120 124 124 123 123 131 130 125
354 350 347 347 344 339 335 335 333 333 329 330 326 324 325 333 335 334 326 333 345 314 290 276 290 48 172 83 106 75 279 242 208 253 323 359 326 342 7 7 3 76 131 51 36 130 106 303 37 80 275 35 15 16 330 37 322 179 218 12 340 310 319 109 67 98 125 144 91 61 21 324 185 118 53 164 148 138 128 123 131 131 130 133 133 139 140 143
352 349 347 345 342 339 336 334 332 331 329 325 322 322 323 329 333 328 322 327 335 310 271 247 295 287 100 84 49 84 259 161 274 237 44 23 359 0 23 13 28 75 64 340 27 49 74 199 133 213 143 340 5 311 191 103 235 158 238 196 229 269 327 308 191 194 179 148 153 100 110 168 207 77 227 192 169 143 131 138 149 139 139 145 142 150 156 144
350 347 346 345 342 338 337 334 331 329 326 324 322 321 319 327 329 326 317 325 327 287 217 241 213 146 82 89 108 204 201 99 235 261 70 44 8 37 352 334 29 67 101 38 87 147 142 143 172 130 47 202 43 300 128 242 164 353 251 332 320 328 227 224 97 176 168 268 146 116 154 168 201 26 214 171 170 157 145 154 157 149 148 151 153 147 157 141
347 344 344 343 343 338 336 334 330 327 324 321 318 314 318 325 327 321 317 326 312 237 195 219 191 138 76 73 133 210 176 224 117 55 60 45 334 181 251 308 37 152 124 126 252 262 166 153 123 72 252 354 295 304 15 233 55 246 23 305 297 348 359 246 185 211 162 276 162 187 107 159 214 222 202 157 153 164 151 155 159 157 159 158 157 151 151 157
345 341 339 340 340 337 339 335 332 326 323 319 313 308 313 321 323 318 318 334 118 132 197 198 99 124 107 93 241 254 255 294 106 29 12 42 82 15 42 32 311 140 138 127 194 218 184 135 112 75 230 91 199 43 187 64 299 77 43 173 334 1 332 290 144 36 148 243 145 153 293 251 220 228 146 152 158 154 147 160 168 166 165 165 161 161 161 148
341 337 336 338 338 338 338 335 332 327 323 319 312 310 305 317 318 310 311 302 268 229 171 165 118 81 97 231 263 259 263 198 61 18 331 339 119 298 2 4 45 46 75 90 131 153 116 82 106 112 110 131 308 295 31 336 23 179 252 66 147 14 275 307 58 193 176 224 154 86 243 274 275 263 186 166 163 162 166 169 173 171 172 169 171 163 164 197
338 336 334 336 336 336 337 334 331 328 324 319 315 308 307 314 314 304 298 320 114 153 120 90 30 83 57 268 301 283 245 116 9 252 254 51 80 354 292 352 46 358 62 120 150 182 129 90 78 42 324 294 344 24 338 28 350 21 47 307 322 143 278 302 246 155 190 317 94 91 268 254 257 237 183 175 167 163 165 176 176 176 173 173 167 166 172 199
337 334 332 332 334 336 335 334 330 326 323 319 317 311 306 311 308 296 286 251 199 139 133 108 353 118 96 11 221 48 58 144 247 247 269 98 117 44 256 284 291 24 40 354 58 70 39 85 73 179 292 8 48 84 24 23 338 350 62 260 278 184 260 340 293 235 233 163 282 169 244 306 293 226 179 181 169 178 167 179 181 180 179 171 173 170 181 186
331 331 330 331 333 336 334 329 328 323 318 317 320 308 310 306 306 302 288 116 86 136 128 215 132 112 223 238 333 137 234 236 294 351 339 344 131 166 51 64 27 32 42 23 5 44 349 66 295 29 37 98 107 90 4 20 327 313 19 287 208 224 271 267 302 321 205 176 250 237 226 248 252 196 184 186 179 174 181 183 185 184 179 179 177 182 184 189
324 331 330 328 333 335 331 326 325 325 317 320 318 300 299 303 322 3 33 36 48 104 132 96 116 71 305 4 164 236 148 225 329 237 225 284 105 73 100 69 248 85 60 16 355 64 325 344 29 165 10 2 34 38 84 266 265 281 311 324 310 295 211 247 304 270 98 301 232 242 241 264 252 227 203 195 184 187 193 185 181 181 179 183 182 187 191 185
329 329 327 329 330 332 330 324 327 324 324 317 306 301 277 330 344 73 55 354 56 337 39 252 225 174 237 245 279 345 230 209 106 56 222 121 17 105 77 89 69 152 286 60 253 52 346 68 27 43 342 314 263 132 163 226 183 245 242 250 230 288 282 216 240 275 184 254 249 229 240 258 249 216 210 204 193 194 200 176 179 184 186 182 185 189 186 191
330 325 328 325 328 329 329 328 326 324 329 335 351 351 13 12 0 315 343 24 167 183 228 227 256 312 352 48 163 250 35 26 148 265 357 291 95 71 36 70 6 53 85 174 303 22 101 77 313 273 256 216 215 178 188 210 190 236 155 199 253 236 281 273 251 261 179 256 243 242 242 254 262 224 211 203 182 203 188 191 191 189 186 188 189 186 191 188
326 323 324 323 326 327 328 326 325 322 325 316 322 48 51 199 38 309 306 266 252 272 214 249 189 192 242 141 273 12 147 323 98 259 197 120 110 114 237 49 18 34 355 213 192 310 68 23 281 232 229 191 200 208 205 349 154 210 247 259 281 212 262 271 282 339 334 172 287 262 242 257 258 254 226 195 176 206 199 197 194 190 193 191 186 188 190 198
324 321 323 320 325 326 326 324 322 321 322 32 55 93 141 152 158 222 86 318 320 311 222 237 194 258 328 203 249 151 105 35 289 255 282 148 236 148 294 110 137 180 322 30 14 19 8 267 256 249 206 142 58 134 188 206 244 261 205 261 322 272 244 284 302 303 263 67 264 282 263 259 262 261 237 189 201 210 205 194 191 182 188 190 189 187 190 183
318 312 317 321 323 325 327 319 321 323 3 32 54 72 140 283 330 299 92 185 276 272 192 307 209 281 299 298 260 132 125 189 210 281 255 35 83 259 149 98 137 149 22 58 201 355 341 293 248 218 127 138 352 64 131 64 65 207 230 298 253 238 16 305 295 4 324 178 287 287 272 268 268 260 249 216 203 218 212 204 198 191 184 185 187 182 176 184
301 309 317 319 324 326 321 319 316 7 22 119 89 134 313 41 37 36 64 237 287 312 221 241 167 181 210 169 220 124 150 256 115 238 341 89 145 199 87 141 105 96 198 164 145 182 229 231 139 106 115 155 210 13 149 158 273 271 193 223 260 278 245 202 272 318 289 297 238 285 276 255 235 252 259 261 264 224 191 171 190 215 209 183 176 181 177 176
294 313 312 317 325 326 322 318 26 344 178 30 60 263 277 81 73 86 47 325 1 291 221 317 133 241 200 69 10 178 240 17 227 233 275 111 150 71 206 167 108 224 189 190 101 294 281 276 131 98 85 97 140 250 216 149 263 312 229 203 230 242 271 278 328 12 3 320 325 47 321 258 283 237 260 283 252 221 199 182 197 195 192 188 186 188 195 188
293 300 310 318 326 333 314 335 349 328 35 92 243 284 322 70 65 65 93 76 302 265 6 225 155 272 104 222 37 219 92 269 205 233 71 264 203 144 97 60 125 209 199 168 224 211 227 351 108 173 152 140 159 202 243 153 199 36 271 195 226 236 237 284 326 29 296 236 303 58 236 288 112 268 243 226 219 228 194 207 203 192 193 193 188 185 183 186
287 287 301 319 331 348 15 181 295 333 300 307 311 337 312 45 280 92 18 347 321 225 159 269 65 243 81 269 142 113 87 271 333 12 39 320 57 297 142 239 24 2 161 154 33 290 118 15 59 64 119 148 206 278 245 162 131 235 248 112 109 121 251 256 357 193 249 303 281 225 162 271 286 245 246 212 216 220 211 222 209 201 196 194 190 184 186 190
256 277 293 317 336 1 194 312 354 71 208 277 298 313 23 357 77 60 79 353 263 300 126 230 207 340 92 311 56 162 207 172 75 239 147 294 82 2 81 205 166 191 188 85 258 254 148 191 179 147 119 163 218 210 191 159 155 220 217 147 278 222 250 249 261 266 256 15 292 242 146 265 246 270 336 126 221 238 231 215 211 205 202 193 188 189 193 190
238 263 283 351 338 35 123 152 135 232 213 261 318 37 19 52 100 95 131 212 250 81 276 71 271 61 1 9 60 8 308 344 172 256 316 338 44 152 120 235 163 174 249 162 222 268 276 186 208 166 147 227 225 240 174 158 215 284 149 146 30 39 99 224 252 288 328 70 273 259 172 215 272 199 61 359 261 251 232 217 210 205 200 190 184 194 197 194
225 238 104 11 358 51 336 16 190 222 251 322 24 159 55 42 44 54 16 234 11 238 146 192 152 219 95 147 281 35 191 300 112 352 22 139 332 34 37 100 125 121 222 0 246 228 246 329 156 138 198 209 153 85 143 317 120 122 63 9 347 20 22 37 62 100 50 231 243 237 184 183 285 194 188 159 215 211 221 215 210 210 207 194 194 191 191 183
226 194 135 75 307 220 34 346 280 254 232 68 93 67 99 37 126 115 216 223 355 232 32 144 202 60 126 155 223 299 79 207 262 111 58 7 326 38 97 330 41 53 29 359 291 322 351 8 163 267 72 105 106 88 17 75 31 116 47 65 352 319 5 34 340 43 140 264 250 224 194 188 207 276 225 224 247 212 193 196 198 201 198 189 194 194 187 177
217 177 159 146 181 115 208 234 223 144 108 116 90 76 90 229 9 187 211 312 279 249 158 235 338 137 164 356 116 179 177 332 210 160 179 180 156 154 195 198 135 334 332 292 269 3 273 214 243 334 208 130 115 86 328 16 3 71 69 34 28 283 6 313 40 290 188 234 193 109 139 315 232 244 219 238 241 237 208 205 200 197 184 187 192 189 184 174
200 171 156 152 130 171 231 203 130 120 74 44 79 61 107 132 232 204 267 305 251 143 255 102 188 154 166 101 257 233 245 172 257 189 126 209 170 267 255 199 193 165 249 271 305 8 277 301 282 229 21 216 131 138 235 353 239 111 156 161 78 328 18 263 252 240 300 269 236 93 114 248 270 276 224 239 241 227 217 222 208 180 176 185 185 180 171 169
189 159 170 184 190 207 173 147 148 114 74 49 89 69 54 160 241 235 210 216 202 347 61 130 73 63 130 176 239 162 208 246 151 207 164 216 101 233 287 248 158 99 138 171 213 204 328 335 266 160 227 167 178 176 179 165 158 200 128 143 190 147 203 282 266 271 281 284 288 258 58 233 153 236 254 248 282 264 221 206 166 170 177 174 164 157 161 166
167 169 155 144 221 235 175 164 138 130 107 92 93 153 182 222 198 179 224 254 257 300 123 301 127 99 257 331 287 259 185 292 160 126 201 140 239 169 191 214 240 116 141 93 259 78 211 227 257 309 256 153 174 200 126 102 67 173 168 80 89 228 130 224 206 247 304 330 304 158 212 196 211 265 287 290 347 36 96 126 138 151 158 159 163 169 174 177
118 204 149 215 194 240 160 158 142 119 137 117 160 210 217 180 208 167 235 169 144 167 174 47 87 152 235 301 311 186 328 175 285 121 299 192 218 194 217 208 176 186 152 179 189 212 71 268 274 320 61 154 190 146 191 131 211 222 108 205 209 161 147 278 352 183 38 116 262 165 278 255 312 266 244 24 108 67 103 145 153 163 167 161 170 174 178 181
179 137 202 180 221 169 154 149 141 116 95 146 179 232 205 253 185 180 242 163 206 135 115 162 247 165 211 225 204 191 236 75 254 134 254 161 297 197 226 254 176 184 201 151 267 181 213 257 235 126 214 285 203 128 80 25 145 103 198 239 209 152 100 127 239 321 183 230 273 131 261 280 90 287 66 94 191 202 179 171 171 168 166 173 181 180 182 184
157 201 270 211 200 154 149 146 128 111 99 148 220 231 155 210 228 190 177 114 52 52 124 173 273 157 245 165 246 189 256 166 243 124 239 188 250 169 143 194 206 187 204 295 162 277 111 299 228 301 75 315 345 149 349 312 21 146 186 248 124 240 285 350 83 274 263 253 275 262 236 264 219 247 115 222 208 202 198 187 175 190 189 189 184 188 187 185
160 196 248 212 150 149 148 144 131 128 141 202 227 236 222 226 206 207 195 143 128 128 191 232 197 222 157 184 207 171 157 189 187 191 138 238 191 208 187 168 207 242 207 140 180 168 53 225 304 326 128 322 12 104 206 203 330 79 16 330 242 111 229 150 198 217 118 275 297 280 5 281 133 211 196 206 206 193 175 188 202 200 191 184 185 184 184 187
169 219 237 31 154 143 143 139 134 160 177 217 209 219 154 207 224 233 226 192 238 161 238 183 223 239 178 213 158 172 238 191 157 223 172 240 196 247 197 240 163 160 45 301 148 143 198 112 259 84 308 103 186 187 210 162 180 181 134 257 347 206 226 86 303 165 197 245 251 286 297 273 147 194 176 200 201 188 175 193 205 201 192 192 184 180 186 187
177 256 269 126 143 140 132 135 164 199 208 245 245 229 239 232 214 223 222 211 228 233 191 185 173 206 179 170 262 177 206 179 180 190 194 269 189 256 209 184 155 141 139 49 91 215 124 163 223 106 282 213 237 217 195 176 181 177 175 206 197 160 245 240 260 103 213 205 250 241 262 269 191 205 197 187 201 183 186 194 203 190 188 190 185 188 183 184
180 223 205 153 161 152 146 175 222 181 218 212 211 185 223 222 251 242 217 223 210 233 104 202 214 204 201 220 186 186 169 186 210 198 230 215 219 204 255 161 167 151 143 186 189 222 163 145 154 226 207 221 220 245 350 209 303 193 170 223 176 201 152 201 262 234 76 233 236 274 303 267 117 179 191 189 183 183 185 200 203 181 188 188 187 187 191 179
204 221 18 162 178 173 163 226 206 200 223 231 268 290 262 301 225 209 200 192 213 209 229 225 205 197 239 197 204 204 170 227 174 207 213 225 235 198 209 173 142 164 109 5 46 243 113 179 224 268 304 8 61 345 22 41 126 322 259 187 152 203 198 207 227 174 197 213 161 237 236 265 63 80 203 184 190 180 191 198 185 176 181 188 181 184 182 175
194 194 121 209 203 209 177 205 207 209 224 235 216 240 216 239 213 235 209 199 194 170 205 212 32 205 233 189 160 213 171 246 218 194 244 194 251 186 165 174 162 176 162 213 158 202 121 246 155 286 335 314 316 1 340 351 52 222 206 206 211 221 225 248 70 126 278 239 175 208 254 265 108 314 52 101 140 180 192 190 170 174 188 181 183 180 176 174
107 130 161 179 203 213 207 208 212 194 215 214 210 231 227 246 224 221 199 217 213 200 150 231 212 151 218 137 198 205 194 204 262 221 218 187 222 77 297 176 203 188 203 237 186 158 180 181 145 198 225 263 270 223 227 232 216 213 234 232 220 210 215 140 243 211 235 234 168 232 252 258 256 326 209 215 192 193 200 182 190 183 176 179 179 179 172 168
174 215 148 187 188 208 264 279 233 211 196 199 223 235 224 236 245 212 206 231 194 225 223 216 358 179 199 147 202 213 228 231 211 234 169 220 230 281 227 264 216 224 234 152 157 147 188 198 198 210 204 229 242 262 150 113 86 192 228 206 216 212 211 213 228 232 232 241 241 243 242 271 264 234 247 211 213 198 187 195 190 191 190 179 173 171 173 180
128 218 167 193 151 224 218 211 208 181 214 161 210 186 221 220 223 270 184 223 204 205 233 224 193 172 214 183 207 230 226 231 234 244 217 167 253 215 315 193 10 278 178 123 193 84 84 224 228 219 225 235 245 251 224 156 243 241 231 231 211 207 194 203 211 233 215 231 256 255 240 248 263 258 229 205 216 214 204 193 197 190 183 177 175 173 178 185
219 210 190 176 182 198 212 209 203 209 228 187 228 202 230 208 205 223 172 210 137 190 211 248 211 217 195 190 198 225 229 230 210 228 228 236 228 233 45 86 198 250 148 220 218 186 170 224 239 193 238 244 247 252 250 234 231 255 259 258 227 196 197 207 225 232 216 217 243 261 256 245 255 254 233 204 207 205 201 201 198 186 168 159 163 173 181 187
221 23 212 161 220 183 214 202 189 197 218 213 250 236 244 224 213 208 173 181 197 210 199 222 220 215 204 193 195 227 227 224 235 224 210 223 218 187 219 353 250 164 185 172 184 200 123 245 249 183 243 244 251 252 250 251 261 264 262 256 243 205 210 219 230 232 226 236 243 255 264 263 264 261 231 222 201 203 205 188 159 153 173 174 174 178 182 182
208 190 202 190 216 211 201 199 202 198 219 209 225 231 231 228 232 195 208 178 201 218 195 220 232 210 201 206 210 224 224 213 208 215 214 212 230 194 225 200 130 357 155 198 152 276 165 254 223 197 248 256 255 249 241 241 247 261 261 257 243 238 237 230 234 244 242 245 250 252 258 268 267 261 249 234 177 175 145 161 179 181 171 176 178 180 182 184
201 189 138 167 209 216 189 171 192 203 210 211 219 235 235 224 238 209 217 205 209 198 183 213 221 213 197 212 219 227 228 219 214 227 212 170 211 201 179 245 152 159 176 180 157 262 188 260 67 114 240 263 264 233 237 237 273 258 265 264 243 233 243 236 229 233 227 236 242 250 258 258 259 269 222 214 175 169 181 180 174 184 182 174 180 180 181 186
225 92 181 162 217 185 211 184 205 186 222 214 213 224 221 217 230 190 235 228 231 219 201 213 219 210 212 216 223 226 226 220 221 234 201 194 218 89 215 173 169 166 171 195 155 168 190 156 188 168 227 250 277 102 105 127 284 281 255 254 240 230 229 237 239 239 232 229 239 243 240 242 253 267 204 209 186 196 181 181 182 182 181 178 179 179 181 182